This demonstration page uses our WeatherBlox Daily Observations layout. Learn more.

Left ArrowRight Arrow

34.74481, -87.66753

Hourly Observations for April 18, 2015

Temp ( °F °C ) Dew Point ( °F °C ) Humidity (%) Winds ( mph kmh ) Pressure ( in mb ) Visibility ( mi km ) Precip ( " mm )
12:03 am 00:03 Clear with Fog 58 14.4 56 13.3 93 93 Calm 30.03 1017 1 1 0.00 0.00
12:53 am 00:53 Mostly Cloudy with Fog 58 14.4 55 12.8 90 90 Calm 30.03 1017 0 0 0.00 0.00
1:04 am 01:04 Mostly Cloudy with Fog 58 14.4 56 13.3 93 93 Calm 30.03 1017 1 1 0.00 0.00
1:15 am 01:15 Mostly Cloudy with Fog 58 14.4 56 13.3 93 93 Calm 30.03 1017 0 0 0.00 0.00
1:53 am 01:53 Mostly Cloudy with Fog 57 13.9 55 12.8 93 93 Calm 30.00 1016 1 1 0.00 0.00
2:53 am 02:53 Mostly Cloudy with Fog 58 14.4 56 13.3 93 93 Calm 29.98 1015 1 1 0.00 0.00
2:59 am 02:59 Mostly Cloudy with Fog 57 13.9 55 12.8 93 93 Calm 30.00 1016 0 0 0.00 0.00
3:08 am 03:08 Mostly Cloudy with Fog 57 13.9 55 12.8 93 93 Calm 30.00 1016 0 0 0.00 0.00
3:53 am 03:53 Mostly Cloudy with Fog 58 14.4 56 13.3 93 93 SSE 3 6 29.98 1015 0 0 0.00 0.00
4:21 am 04:21 Mostly Cloudy with Fog 58 14.4 56 13.3 93 93 NW 3 6 30.00 1016 0 0 0.00 0.00
4:38 am 04:38 Mostly Cloudy with Fog 58 14.4 56 13.3 93 93 Calm 30.00 1016 0 0 0.00 0.00
4:53 am 04:53 Mostly Cloudy with Fog 58 14.4 56 13.3 93 93 Calm 30.00 1016 0 0 0.00 0.00
5:19 am 05:19 Mostly Cloudy with Fog 58 14.4 56 13.3 93 93 Calm 30.00 1016 1 1 0.00 0.00
5:32 am 05:32 Mostly Cloudy with Fog 59 15 57 13.9 93 93 Calm 30.00 1016 0 0 0.00 0.00
5:43 am 05:43 Mostly Cloudy with Fog 59 15 57 13.9 93 93 Calm 30.00 1016 1 1 0.00 0.00
5:50 am 05:50 Mostly Cloudy with Mist and Fog 59 15 57 14 94 94 Calm 30.00 1016 1 1 0.00 0.00
5:53 am 05:53 Mostly Cloudy with Mist and Fog 59 15 57 13.9 93 93 Calm 29.99 1016 1 1 0.00 0.00
6:01 am 06:01 Cloudy with Mist and Fog 59 15 57 13.9 93 93 Calm 30.00 1016 2 3 0.00 0.00
6:10 am 06:10 Cloudy with Mist and Fog 60 15.6 58 14.4 93 93 Calm 29.97 1015 3 5 0.00 0.00
6:44 am 06:44 Cloudy with Mist and Fog 60 15.6 58 14.4 93 93 Calm 29.97 1015 2 2 0.00 0.00
6:48 am 06:48 Cloudy with Mist and Fog 61 16 57 14 88 88 Calm 29.97 1015 1 1 0.00 0.00
6:53 am 06:53 Mostly Cloudy with Fog 60 15.6 58 14.4 93 93 Calm 30.00 1016 1 1 0.00 0.00
7:07 am 07:07 Mostly Cloudy with Fog 60 15.6 59 15 96 96 E 3 6 29.97 1015 0 0 0.00 0.00
7:46 am 07:46 Mostly Cloudy with Fog 61 16.1 59 15 93 93 ESE 6 9 29.97 1015 1 1 0.00 0.00
7:53 am 07:53 Mostly Cloudy with Fog 61 16.1 59 15 93 93 ESE 5 7 29.99 1016 1 1 0.00 0.00
8:17 am 08:17 Cloudy with Mist and Fog 62 16.7 60 15.6 93 93 ESE 6 9 29.97 1015 2 3 0.00 0.00
8:25 am 08:25 Cloudy with Mist and Fog 62 16.7 60 15.6 93 93 SE 7 11 29.97 1015 5 8 0.00 0.00
8:53 am 08:53 Cloudy with Mist and Fog 62 16.7 60 15.6 93 93 ESE 5 7 29.99 1016 3 5 0.00 0.00
9:34 am 09:34 Cloudy 64 17.8 61 16.1 90 90 ESE 6 9 29.97 1015 10 16 0.00 0.00
9:53 am 09:53 Mostly Cloudy 66 18.9 60 15.6 81 81 ESE 5 7 29.99 1016 10 16 0.00 0.00
10:12 am 10:12 Mostly Cloudy 66 18.9 60 15.6 81 81 E 6 9 29.97 1015 10 16 0.00 0.00
10:21 am 10:21 Partly Cloudy 67 19.4 61 16.1 81 81 ESE 8 13 29.97 1015 10 16 0.00 0.00
10:53 am 10:53 Mostly Sunny 68 20 61 16.1 78 78 E 7 11 29.99 1016 10 16 0.00 0.00
11:20 am 11:20 Mostly Cloudy 69 20.6 61 16.1 76 76 SE 8 13 29.97 1015 10 16 0.00 0.00
11:31 am 11:31 Partly Cloudy 69 20.6 61 16.1 76 76 SE 7 11 29.97 1015 10 16 0.00 0.00
11:53 am 11:53 Sunny 71 21.7 62 16.7 73 73 ESE 7 11 29.98 1015 10 16 0.00 0.00
12:53 pm 12:53 Mostly Cloudy 72 22.2 61 16.1 68 68 SE 3 6 29.96 1015 10 16 0.00 0.00
1:53 pm 13:53 Mostly Cloudy 74 23.3 60 15.6 62 62 SSW 3 6 29.94 1014 10 16 0.00 0.00
2:53 pm 14:53 Mostly Sunny 75 23.9 62 16.7 64 64 SE 6 9 29.89 1012 10 16 0.00 0.00
3:53 pm 15:53 Mostly Cloudy 75 23.9 62 16.7 64 64 E 7 11 29.88 1012 10 16 0.00 0.00
4:53 pm 16:53 Mostly Cloudy 75 23.9 62 16.7 64 64 SE 9 15 29.88 1012 10 16 0.00 0.00
5:53 pm 17:53 Mostly Sunny 73 22.8 61 16.1 66 66 S 7 11 29.88 1012 10 16 0.00 0.00
6:53 pm 18:53 Mostly Cloudy 72 22.2 62 16.7 71 71 S 5 7 29.87 1012 10 16 0.00 0.00
7:53 pm 19:53 Clear 69 20.6 62 16.7 78 78 SSE 6 9 29.86 1011 10 16 0.00 0.00
8:53 pm 20:53 Cloudy 69 20.6 63 17.2 81 81 SSE 5 7 29.88 1012 10 16 0.00 0.00
9:53 pm 21:53 Cloudy 68 20 63 17.2 84 84 SSE 3 6 29.88 1012 10 16 0.00 0.00
10:53 pm 22:53 Cloudy 67 19.4 62 16.7 84 84 SE 3 6 29.85 1011 10 16 0.00 0.00
11:53 pm 23:53 Cloudy 67 19.4 62 16.7 84 84 ESE 3 6 29.83 1010 10 16 0.00 0.00

Powered by AerisWeather